[[{"header":{"parameterUnit":"m.s-1","parameterCategory":1,"la1":30.2991,"la2":30.254,"lo1":-89.0895,"lo2":-89.0444,"dy":0.0017,"dx":0.0017,"nx":28,"ny":28,"refTime":"2024-05-14T21:00:00:Z","depth":0,"parameterNumber":2,"parameterNumberName":"U-component_of_WINDS"},"data":[0,0,0,0,0,0,0,0,0,0,0,0,0,0,0,0,0,0,0,0,0,0,0,0,0,0,0,0,0,0,0,0,0,0,0,0,0,0,0,0,0,0,0,0,0,0,0,0,0,0,0,0,0,0,0,0,0,0,3.8683,3.8684,0,3.876,3.8761,3.8762,3.8788,3.8788,3.8788,3.8788,3.8862,3.8864,3.8866,0,0,0,0,0,0,0,0,0,0,0,0,0,3.8553,3.8555,3.8683,3.8684,3.8685,3.876,3.8761,3.8762,3.8789,3.8788,3.8788,3.8788,3.8861,3.8864,3.8866,0,0,0,0,0,0,0,0,0,0,0,0,0,3.8617,3.8556,3.8683,3.8708,3.8711,3.876,3.8761,3.8762,3.8789,3.8788,3.8788,3.8787,3.886,3.8864,3.8867,3.8896,0,0,3.8877,3.8879,0,0,0,0,0,0,0,0,3.8614,3.8622,3.8703,3.8706,3.8709,3.8764,3.8742,3.8807,3.8789,3.8759,3.8788,3.8787,3.8829,3.8835,3.8851,3.89,3.8903,3.8877,3.8879,3.8881,3.8882,0,0,0,0,0,0,0,3.8609,3.8619,3.8714,3.8704,3.8708,3.8712,3.8721,3.8755,3.8795,3.8761,3.8764,3.8772,3.8831,3.8847,3.8852,3.8904,3.8877,3.888,3.8882,3.8884,3.8976,3.8977,0,0,0,0,0,0,3.8601,3.8615,3.8711,3.8716,3.866,3.8715,3.8725,3.8747,3.8795,3.8802,3.8773,3.8773,3.8842,3.8849,3.8855,3.8891,3.8881,3.8884,3.8886,3.8976,3.8976,3.8977,0,0,0,0,0,0,3.8598,3.861,3.8708,3.8666,3.8679,3.8718,3.8743,3.8749,3.8765,3.8804,3.8811,3.8782,3.8842,3.885,3.8885,3.8894,3.8886,3.8889,3.8975,3.8976,3.8977,3.8963,0,0,0,0,0,0,3.8595,3.8608,3.8622,3.8666,3.8681,3.8739,3.8743,3.8751,3.8771,3.8773,3.8815,3.8821,3.8842,3.888,3.8888,3.8898,3.8891,3.8975,3.8976,3.8977,3.8962,3.8963,3.8963,0,0,0,0,0,3.859,3.8615,3.8623,3.8634,3.8699,3.874,3.8748,3.8773,3.8772,3.8784,3.8808,3.882,3.8891,3.8883,3.8893,3.8904,3.8974,3.8975,3.8976,3.8962,3.8963,3.8963,0,0,0,0,0,0,3.857,3.8621,3.863,3.8671,3.8701,3.8744,3.8761,3.8773,3.8802,3.8802,3.883,3.884,3.8871,3.8891,3.8881,3.8932,3.8933,3.8936,3.8919,3.892,3.892,3.8914,3.8894,0,0,0,0,0,3.857,3.8601,3.8643,3.8675,3.8689,3.8722,3.8741,3.8757,3.8788,3.8801,3.8828,3.8856,3.8885,3.8903,3.8932,3.8965,3.8973,3.8977,3.8977,3.8977,3.8979,3.8995,3.8996,3.898,3.898,3.898,0,0,3.8572,3.8603,3.8621,3.8671,3.8696,3.8725,3.8733,3.8763,3.8784,3.8805,3.884,3.886,3.8893,3.8926,3.8942,3.8943,3.8985,3.8978,3.8978,3.898,3.8996,3.8997,3.8999,3.8981,3.8981,3.8981,0,0,3.8588,3.8616,3.8644,3.8669,3.8706,3.8728,3.8734,3.8775,3.8789,3.8824,3.884,3.8863,3.8913,3.8935,3.8953,3.8973,3.8983,3.8981,3.8982,3.8997,3.8999,3.9,3.9005,3.9007,3.8983,3.8983,3.8983,0,3.8584,3.863,3.8657,3.8686,3.8706,3.8727,3.8753,3.8775,3.882,3.8832,3.8833,3.8893,3.8917,3.8955,3.8959,3.8973,3.8979,3.8977,3.8997,3.8998,3.9,3.9005,3.9007,3.8983,3.8983,3.8983,3.8983,0,3.8622,3.8653,3.8671,3.8714,3.8736,3.8763,3.8792,3.881,3.8823,3.8843,3.8876,3.8906,3.8939,3.8949,3.8962,3.8987,3.8986,3.8992,3.8993,3.9,3.9006,3.9008,3.8982,3.8982,3.8982,3.8982,0,0,3.8631,3.8686,3.8692,3.871,3.8751,3.8775,3.8801,3.8835,3.8849,3.8878,3.8899,3.8939,3.8943,3.8963,3.8978,3.8992,3.9003,3.8995,3.8996,3.8994,3.9029,3.9025,3.9027,3.901,3.901,3.9011,3.9026,0,3.8652,3.8703,3.8726,3.8765,3.8792,3.881,3.8833,3.8859,3.8877,3.8901,3.8921,3.8948,3.8952,3.8964,3.8978,3.8999,3.901,3.8998,3.9028,3.9029,3.9019,3.903,3.9027,3.904,3.9028,3.9029,3.9029,0,3.8684,3.8713,3.8755,3.879,3.8802,3.8823,3.8854,3.8877,3.8905,3.8917,3.8938,3.8952,3.8978,3.8976,3.9011,3.9002,3.9015,3.9026,3.9027,3.9031,3.903,3.9034,3.9045,3.9047,3.9033,3.9033,3.9032,0,3.8683,3.8733,3.8764,3.8779,3.8822,3.8835,3.8853,3.8881,3.8899,3.8925,3.8936,3.8964,3.8979,3.8999,3.9019,3.9017,3.9051,3.9052,3.906,3.9059,3.9067,3.9066,3.908,3.9076,3.9076,3.9076,3.9075,0,3.8704,3.8729,3.8764,3.8783,3.881,3.8835,3.886,3.8879,3.8903,3.8924,3.8941,3.896,3.8985,3.9007,3.9022,3.9047,3.9054,3.9063,3.9066,3.9061,3.906,3.907,3.907,3.9076,3.9076,3.9076,3.9076,0,3.8709,3.8734,3.8769,3.8805,3.8815,3.8833,3.8863,3.8881,3.8899,3.8925,3.8932,3.896,3.8986,3.9008,3.9042,3.9052,3.9077,3.9082,3.9068,3.907,3.9076,3.9075,3.9097,3.9101,3.9094,3.9094,3.9094,0,3.872,3.874,3.8778,3.8794,3.8811,3.8837,3.8854,3.8878,3.8895,3.8927,3.894,3.8967,3.899,3.9029,3.9052,3.9076,3.9082,3.9087,3.9086,3.9079,3.908,3.9079,3.908,3.9088,3.9088,3.9088,3.9088,0,3.8737,3.8748,3.8774,3.8803,3.8824,3.8848,3.8872,3.8883,3.891,3.8928,3.8955,3.8973,3.9007,3.9032,3.9059,3.9075,3.9085,3.9088,3.9091,3.9086,3.9076,3.908,3.9067,3.9087,3.9087,3.9087,3.9087,3.9087,3.8745,3.8762,3.8791,3.8818,3.8838,3.886,3.8878,3.8898,3.8921,3.8951,3.8963,3.8989,3.9014,3.9051,3.9067,3.9086,3.9088,3.9093,3.9094,3.9095,3.9093,3.9073,3.9091,3.9091,3.9091,3.9091,3.9091,0,3.8761,3.878,3.8805,3.8838,3.8859,3.8867,3.8893,3.891,3.8933,3.8956,3.8978,3.9007,3.9031,3.9054,3.9079,3.909,3.9095,3.9096,3.9095,3.9098,3.9091,3.9085,3.9091,3.9091,3.9091,3.9091,3.9091,3.9091,3.8772,3.8801,3.8814,3.8852,3.887,3.8898,3.8912,3.8931,3.8949,3.8981,3.9002,3.9017,3.9039,3.9065,3.9086,3.9092,3.91,3.9099,3.9106,3.9099,3.9099,3.9099,3.9094,3.9101,3.9101,3.9112,3.9112,3.9112]},{"header":{"parameterUnit":"m.s-1","parameterCategory":1,"la1":30.2991,"la2":30.254,"lo1":-89.0895,"lo2":-89.0444,"dy":0.0017,"dx":0.0017,"nx":28,"ny":28,"refTime":"2024-05-14T21:00:00:Z","depth":0,"parameterNumber":3,"parameterNumberName":"V-component_of_WINDS"},"data":[0,0,0,0,0,0,0,0,0,0,0,0,0,0,0,0,0,0,0,0,0,0,0,0,0,0,0,0,0,0,0,0,0,0,0,0,0,0,0,0,0,0,0,0,0,0,0,0,0,0,0,0,0,0,0,0,0,0,8.0216,8.022,0,8.056,8.0564,8.0568,8.0608,8.0605,8.0602,8.0598,8.0945,8.0956,8.0969,0,0,0,0,0,0,0,0,0,0,0,0,0,7.9589,7.9601,8.0216,8.022,8.0225,8.0559,8.0564,8.0569,8.0609,8.0605,8.0601,8.0597,8.094,8.0955,8.097,0,0,0,0,0,0,0,0,0,0,0,0,0,7.989,7.9604,8.0215,8.0285,8.0295,8.0558,8.0564,8.057,8.061,8.0605,8.06,8.0595,8.0936,8.0954,8.0972,8.1188,0,0,8.1029,8.1037,0,0,0,0,0,0,0,0,7.9873,7.9913,8.0271,8.0281,8.0292,8.0536,8.047,8.0777,8.0611,8.049,8.0598,8.0593,8.0812,8.0841,8.0916,8.1204,8.1219,8.103,8.1041,8.1049,8.1055,0,0,0,0,0,0,0,7.9852,7.9898,8.0352,8.0276,8.0289,8.0298,8.0335,8.0528,8.0675,8.05,8.0504,8.0544,8.0817,8.0898,8.0924,8.1224,8.103,8.1046,8.1058,8.1065,8.1706,8.1712,0,0,0,0,0,0,7.9819,7.9881,8.0341,8.0362,8.0066,8.0313,8.0355,8.0463,8.0673,8.0701,8.0548,8.0545,8.0869,8.0903,8.0937,8.1204,8.1049,8.1067,8.1077,8.17,8.1707,8.1714,0,0,0,0,0,0,7.9805,7.986,8.0327,8.0123,8.0183,8.0329,8.0451,8.0472,8.0553,8.071,8.0736,8.0605,8.0866,8.0911,8.1126,8.1217,8.1075,8.1092,8.1693,8.1703,8.1711,8.174,0,0,0,0,0,0,7.9787,7.9854,7.9939,8.0124,8.0194,8.0512,8.0456,8.0483,8.0586,8.0585,8.0769,8.0795,8.0866,8.1098,8.1144,8.124,8.1106,8.1686,8.1697,8.1708,8.1731,8.1748,8.1763,0,0,0,0,0,7.9765,7.9932,7.9943,7.9998,8.0303,8.0517,8.0556,8.0636,8.0593,8.0679,8.0779,8.0789,8.1199,8.1119,8.1172,8.1274,8.168,8.1694,8.1707,8.1724,8.1745,8.1763,0,0,0,0,0,0,7.9751,7.9957,7.9972,8.0205,8.0343,8.0523,8.0634,8.0656,8.0808,8.08,8.0891,8.0932,8.1143,8.123,8.1138,8.1494,8.1435,8.146,8.143,8.1452,8.1467,8.1442,8.1122,0,0,0,0,0,7.9776,7.9934,8.0105,8.0294,8.0363,8.0486,8.0582,8.0632,8.0778,8.0837,8.0953,8.1093,8.1253,8.1357,8.1513,8.1744,8.1784,8.184,8.1856,8.1868,8.1888,8.2017,8.2044,8.1758,8.1758,8.1757,0,0,7.9827,7.9959,8.0053,8.0294,8.0408,8.0568,8.0535,8.0706,8.0826,8.0862,8.1073,8.1163,8.1325,8.1549,8.1653,8.1628,8.1977,8.1885,8.1894,8.1908,8.2034,8.2061,8.2085,8.1767,8.1765,8.1764,0,0,8.0003,8.0119,8.029,8.0405,8.0577,8.0659,8.0699,8.0877,8.0939,8.1153,8.1184,8.1326,8.16,8.1715,8.1809,8.203,8.2045,8.2078,8.2162,8.2286,8.2309,8.2329,8.2409,8.2436,8.2098,8.2098,8.2098,0,8.0045,8.029,8.0374,8.0546,8.0651,8.0693,8.0866,8.0972,8.1186,8.1257,8.1225,8.1572,8.1684,8.1936,8.199,8.2064,8.2113,8.2058,8.2299,8.2321,8.2341,8.2418,8.2447,8.2101,8.21,8.21,8.21,0,8.0333,8.0503,8.0619,8.0828,8.0946,8.1117,8.1225,8.1334,8.1374,8.1458,8.1674,8.1811,8.1996,8.2059,8.2098,8.2317,8.2296,8.2281,8.2223,8.237,8.2443,8.2473,8.2105,8.2104,8.2103,8.2102,0,0,8.051,8.0764,8.0806,8.0901,8.1095,8.1227,8.1399,8.1583,8.1675,8.182,8.1967,8.2199,8.2187,8.2294,8.2346,8.2456,8.2623,8.2428,8.2433,8.246,8.2873,8.2883,8.2916,8.2634,8.264,8.2644,8.2859,0,8.0709,8.102,8.1101,8.1365,8.1523,8.1566,8.1716,8.185,8.1934,8.2078,8.2169,8.2333,8.2304,8.2369,8.2479,8.2579,8.2707,8.2565,8.277,8.2776,8.2729,8.2954,8.2966,8.3163,8.2889,8.2893,8.2897,0,8.0983,8.1138,8.1418,8.1593,8.1662,8.1796,8.1971,8.2109,8.2262,8.2315,8.2435,8.2478,8.2657,8.259,8.2839,8.2741,8.283,8.2891,8.2901,8.2924,8.2846,8.2984,8.3227,8.3257,8.2943,8.2939,8.2936,0,8.1085,8.1363,8.1567,8.1647,8.1856,8.1949,8.204,8.2189,8.2294,8.2446,8.2515,8.2685,8.2778,8.2908,8.2995,8.2938,8.3238,8.3177,8.3286,8.3284,8.3347,8.3342,8.3609,8.3403,8.3403,8.3402,8.3401,0,8.1299,8.1469,8.1616,8.1741,8.1933,8.2024,8.221,8.2302,8.2434,8.2577,8.2623,8.2756,8.2862,8.3009,8.3078,8.3274,8.3315,8.3363,8.3379,8.3359,8.3353,8.3419,8.3408,8.341,8.3408,8.3407,8.3405,0,8.1445,8.155,8.1776,8.1956,8.2005,8.2139,8.2292,8.2415,8.25,8.268,8.2728,8.286,8.3036,8.3136,8.3356,8.3402,8.3621,8.363,8.357,8.3577,8.3681,8.367,8.4,8.4048,8.3808,8.3811,8.3812,0,8.1575,8.1707,8.1902,8.2003,8.2096,8.2257,8.2366,8.246,8.257,8.2755,8.2856,8.3035,8.3183,8.3462,8.3577,8.3745,8.3759,8.3863,8.3785,8.3761,8.3762,8.3754,8.3767,8.3877,8.3879,8.3881,8.3882,0,8.1795,8.1841,8.1997,8.2172,8.2301,8.2442,8.2582,8.2661,8.2779,8.29,8.3082,8.3198,8.3424,8.3601,8.378,8.3871,8.3897,8.3906,8.394,8.3922,8.3882,8.3906,8.3608,8.3898,8.3896,8.3895,8.3894,8.3894,8.1938,8.2058,8.2215,8.2387,8.2503,8.2633,8.2759,8.286,8.3014,8.3207,8.3253,8.3444,8.3594,8.3837,8.3933,8.4083,8.4064,8.4113,8.4126,8.4137,8.4141,8.3858,8.4116,8.4115,8.4115,8.4115,8.4115,0,8.2161,8.2264,8.2422,8.2618,8.2754,8.2768,8.2924,8.3036,8.3205,8.3343,8.3489,8.3698,8.387,8.3999,8.4175,8.427,8.4287,8.4314,8.4308,8.4329,8.4147,8.4101,8.4298,8.4298,8.4298,8.4298,8.4298,8.4298,8.2293,8.2497,8.2562,8.2824,8.2926,8.3116,8.3204,8.3324,8.3436,8.3668,8.3812,8.3896,8.4031,8.4217,8.4376,8.4409,8.4472,8.4498,8.4532,8.4361,8.4341,8.4322,8.4279,8.451,8.4511,8.4702,8.4703,8.4704]}]]